• In Romania
  • List of Countries
  • For 7 days
  • Water Temperature
  • Satellite Maps
  • Weather Map
  • Weather Widgets
  • user-avatar
    Login

    Hourly Weather Satif

    Today, 19 January, Thursday

    Time Temperature Precipitation Wind Pressure Humidity
    00:00 -2°C° 0 mm 1 mps 668 mmHg 85%
    01:00 -2°C° 0 mm 1 mps 668 mmHg 84%
    02:00 -2°C° 0 mm 1 mps 668 mmHg 83%
    03:00 -2°C° 0 mm 1 mps 668 mmHg 82%
    04:00 -1°C° 0.1 mm 1 mps 668 mmHg 80%
    05:00 -1°C° 0.1 mm 1 mps 669 mmHg 78%
    06:00 -1°C° 0 mm 1 mps 669 mmHg 75%
    07:00 -1°C° 0 mm 2 mps 669 mmHg 71%
    08:00 +1°C° 0 mm 2 mps 670 mmHg 67%
    09:00 +3°C° 0 mm 2 mps 670 mmHg 63%
    10:00 +4°C° 0 mm 2 mps 670 mmHg 61%
    11:00 +5°C° 0 mm 2 mps 671 mmHg 58%
    12:00 +7°C° 0 mm 3 mps 671 mmHg 55%
    13:00 +7°C° 0 mm 3 mps 670 mmHg 56%
    14:00 +7°C° 0 mm 2 mps 670 mmHg 57%
    15:00 +7°C° 0 mm 2 mps 670 mmHg 58%
    16:00 +4°C° 0 mm 2 mps 670 mmHg 65%
    17:00 +2°C° 0 mm 2 mps 669 mmHg 71%
    18:00 +1°C° 0 mm 1 mps 669 mmHg 78%
    19:00 +1°C° 0 mm 1 mps 669 mmHg 78%
    20:00 +1°C° 0 mm 1 mps 669 mmHg 78%
    21:00 0°C° 0 mm 1 mps 669 mmHg 78%
    22:00 0°C° 0 mm 1 mps 669 mmHg 78%
    23:00 0°C° 0 mm 1 mps 669 mmHg 77%

    Tomorrow, 20 January, Friday

    Time Temperature Precipitation Wind Pressure Humidity
    00:00 0°C° 0 mm 1 mps 669 mmHg 77%
    01:00 0°C° 0 mm 1 mps 669 mmHg 76%
    02:00 0°C° 0 mm 1 mps 668 mmHg 75%
    03:00 -1°C° 0 mm 1 mps 668 mmHg 74%
    04:00 -1°C° 0 mm 1 mps 668 mmHg 73%
    05:00 -1°C° 0 mm 1 mps 668 mmHg 72%
    06:00 -2°C° 0 mm 2 mps 668 mmHg 71%
    07:00 -1°C° 0 mm 2 mps 668 mmHg 67%
    08:00 +2°C° 0 mm 2 mps 668 mmHg 62%
    09:00 +4°C° 0 mm 2 mps 669 mmHg 58%
    10:00 +5°C° 0 mm 2 mps 669 mmHg 55%
    11:00 +7°C° 0 mm 3 mps 668 mmHg 53%
    12:00 +8°C° 0 mm 3 mps 668 mmHg 51%
    13:00 +7°C° 0.2 mm 3 mps 668 mmHg 58%
    14:00 +7°C° 0.2 mm 3 mps 667 mmHg 64%
    15:00 +7°C° 0.2 mm 3 mps 666 mmHg 70%
    16:00 +4°C° 0.6 mm 3 mps 666 mmHg 78%
    17:00 +4°C° 0.6 mm 2 mps 665 mmHg 85%
    18:00 +3°C° 0.6 mm 2 mps 665 mmHg 93%
    19:00 +2°C° 0.1 mm 2 mps 664 mmHg 93%
    20:00 +2°C° 0.1 mm 2 mps 664 mmHg 93%
    21:00 +2°C° 0.1 mm 1 mps 664 mmHg 93%
    22:00 +2°C° 0.1 mm 1 mps 664 mmHg 92%
    23:00 +2°C° 0.1 mm 1 mps 663 mmHg 91%

    Day after tomorrow, 21 January, Saturday

    Time Temperature Precipitation Wind Pressure Humidity
    00:00 +2°C° 0.1 mm 1 mps 663 mmHg 90%
    01:00 +2°C° 0.2 mm 1 mps 663 mmHg 90%
    02:00 +2°C° 0.2 mm 1 mps 663 mmHg 90%
    03:00 +1°C° 0.2 mm 1 mps 662 mmHg 90%
    04:00 +1°C° 0.1 mm 1 mps 662 mmHg 90%
    05:00 0°C° 0.1 mm 1 mps 662 mmHg 90%
    06:00 0°C° 0.1 mm 1 mps 662 mmHg 91%
    07:00 +1°C° 0 mm 1 mps 663 mmHg 86%
    08:00 +3°C° 0 mm 1 mps 663 mmHg 82%
    09:00 +3°C° 0 mm 2 mps 664 mmHg 77%
    10:00 +4°C° 0.1 mm 2 mps 664 mmHg 75%
    11:00 +4°C° 0.1 mm 3 mps 664 mmHg 72%
    12:00 +4°C° 0.1 mm 4 mps 664 mmHg 70%
    13:00 +4°C° 0.5 mm 4 mps 663 mmHg 73%
    14:00 +3°C° 0.5 mm 4 mps 663 mmHg 76%
    15:00 +3°C° 0.5 mm 4 mps 663 mmHg 79%
    16:00 +1°C° 0.4 mm 4 mps 663 mmHg 82%
    17:00 0°C° 0.4 mm 4 mps 663 mmHg 85%
    18:00 0°C° 0.4 mm 4 mps 663 mmHg 88%
    19:00 0°C° 0.2 mm 4 mps 663 mmHg 89%
    20:00 -1°C° 0.2 mm 4 mps 664 mmHg 90%
    21:00 -1°C° 0.2 mm 4 mps 664 mmHg 91%
    22:00 0°C° 0.1 mm 3 mps 664 mmHg 91%
    23:00 0°C° 0.1 mm 3 mps 664 mmHg 91%

    22 January, Sunday

    Time Temperature Precipitation Wind Pressure Humidity
    00:00 0°C° 0.1 mm 3 mps 664 mmHg 91%
    01:00 0°C° 0 mm 3 mps 664 mmHg 90%
    02:00 0°C° 0 mm 3 mps 664 mmHg 90%
    03:00 0°C° 0 mm 3 mps 664 mmHg 90%
    04:00 -1°C° 0 mm 3 mps 664 mmHg 90%
    05:00 -1°C° 0 mm 3 mps 664 mmHg 91%
    06:00 -2°C° 0 mm 3 mps 664 mmHg 92%
    07:00 -1°C° 0 mm 3 mps 664 mmHg 87%
    08:00 -1°C° 0 mm 4 mps 665 mmHg 83%
    09:00 0°C° 0 mm 4 mps 665 mmHg 79%
    10:00 +1°C° 0.1 mm 5 mps 665 mmHg 76%
    11:00 +1°C° 0.1 mm 5 mps 665 mmHg 74%
    12:00 +2°C° 0.1 mm 5 mps 665 mmHg 72%
    13:00 +2°C° 0.4 mm 5 mps 665 mmHg 74%
    14:00 +1°C° 0.4 mm 4 mps 665 mmHg 76%
    15:00 +1°C° 0.4 mm 4 mps 664 mmHg 78%
    16:00 +1°C° 0.3 mm 3 mps 665 mmHg 81%
    17:00 +2°C° 0.3 mm 2 mps 665 mmHg 84%
    18:00 +2°C° 0.3 mm 1 mps 665 mmHg 87%
    19:00 +2°C° 0.3 mm 1 mps 665 mmHg 88%
    20:00 +2°C° 0.3 mm 1 mps 666 mmHg 88%
    21:00 +2°C° 0.3 mm 1 mps 666 mmHg 89%
    22:00 +1°C° 0.1 mm 1 mps 666 mmHg 90%
    23:00 +1°C° 0.1 mm 1 mps 666 mmHg 91%

    23 January, Monday

    Time Temperature Precipitation Wind Pressure Humidity
    00:00 0°C° 0.1 mm 1 mps 665 mmHg 93%
    01:00 0°C° 0 mm 1 mps 665 mmHg 93%
    02:00 -1°C° 0 mm 1 mps 665 mmHg 94%
    03:00 -1°C° 0 mm 1 mps 665 mmHg 95%
    04:00 -1°C° 0 mm 1 mps 665 mmHg 95%
    05:00 -1°C° 0 mm 1 mps 666 mmHg 95%
    06:00 -1°C° 0 mm 1 mps 666 mmHg 95%
    07:00 0°C° 0 mm 1 mps 667 mmHg 92%
    08:00 +2°C° 0 mm 1 mps 667 mmHg 89%
    09:00 +4°C° 0 mm 1 mps 668 mmHg 86%
    10:00 +4°C° 0 mm 2 mps 668 mmHg 82%
    11:00 +5°C° 0 mm 2 mps 669 mmHg 78%
    12:00 +5°C° 0 mm 3 mps 669 mmHg 74%
    13:00 +5°C° 0.1 mm 3 mps 669 mmHg 75%
    14:00 +5°C° 0.1 mm 3 mps 668 mmHg 76%
    15:00 +5°C° 0.1 mm 3 mps 668 mmHg 77%
    16:00 +3°C° 0.1 mm 3 mps 668 mmHg 83%
    17:00 +2°C° 0.1 mm 2 mps 668 mmHg 88%
    18:00 +1°C° 0.1 mm 2 mps 668 mmHg 94%
    19:00 -1°C° 0 mm 2 mps 668 mmHg 94%
    20:00 -1°C° 0 mm 2 mps 668 mmHg 95%
    21:00 -2°C° 0 mm 2 mps 669 mmHg 95%
    22:00 -2°C° 0 mm 2 mps 668 mmHg 95%
    23:00 -2°C° 0 mm 2 mps 668 mmHg 95%

    24 January, Tuesday

    Time Temperature Precipitation Wind Pressure Humidity
    00:00 -2°C° 0 mm 2 mps 668 mmHg 95%
    01:00 -3°C° 0 mm 2 mps 668 mmHg 95%
    02:00 -3°C° 0 mm 2 mps 668 mmHg 95%
    03:00 -3°C° 0 mm 2 mps 668 mmHg 95%
    04:00 -3°C° 0 mm 2 mps 668 mmHg 95%
    05:00 -3°C° 0 mm 2 mps 668 mmHg 95%
    06:00 -3°C° 0 mm 2 mps 668 mmHg 95%
    07:00 -1°C° 0 mm 2 mps 669 mmHg 90%
    08:00 +1°C° 0 mm 2 mps 670 mmHg 86%
    09:00 +3°C° 0 mm 2 mps 670 mmHg 81%
    10:00 +4°C° 0.2 mm 2 mps 670 mmHg 80%
    11:00 +3°C° 0.2 mm 3 mps 671 mmHg 78%
    12:00 +4°C° 0.2 mm 3 mps 671 mmHg 76%
    13:00 +4°C° 0.5 mm 3 mps 671 mmHg 78%
    14:00 +4°C° 0.5 mm 3 mps 671 mmHg 80%
    15:00 +4°C° 0.5 mm 3 mps 671 mmHg 82%
    16:00 +3°C° 0.4 mm 3 mps 671 mmHg 87%
    17:00 +3°C° 0.4 mm 2 mps 671 mmHg 91%
    18:00 +2°C° 0.4 mm 2 mps 671 mmHg 95%
    19:00 +2°C° 0.6 mm 2 mps 671 mmHg 94%
    20:00 +2°C° 0.6 mm 2 mps 672 mmHg 94%
    21:00 +2°C° 0.6 mm 2 mps 672 mmHg 94%
    22:00 +2°C° 0.3 mm 2 mps 672 mmHg 94%
    23:00 +1°C° 0.3 mm 2 mps 672 mmHg 94%
    Show more